Date String (YYYY-MM-DD hh:mm:ss) UTC,Instrument flags,Ambient pressure (hPa),Sample flow (lpm),Bypass flow (lpm),Sample temperature (°C),Ambient temperature (°C),ASC tube jacket temperature (°C),LED temperature (°C),Box temperature (°C),Sample RH (%),Span deviation,Mass concentration (μg/m³),Mass concentration (μg/m³),Mass concentration (μg/m³)
DateTimeUTC,F1_M11,P_M11,Q1_M11,Q2_M11,T1_M11,T2_M11,T3_M11,T4_M11,T5_M11,U1_M11,ZSPAN_M11,X0_M11,X2_M11,X1_M11
2022-10-24 17:00:00,,0820.6,5.00,0.00,23.7,22.5,00.0,32.4,25.7,11.1,0000.0,0008.13,0003.41,0003.23
2022-10-24 17:01:00,,0820.6,5.00,0.00,23.7,22.5,00.0,32.4,25.7,10.9,0000.0,0008.13,0003.41,0003.23
2022-10-24 17:02:00,,0820.6,5.02,0.00,23.7,22.5,00.0,32.5,25.7,10.8,0000.0,0007.95,0003.41,0003.24
2022-10-24 17:03:00,,0820.6,4.98,0.00,23.7,22.4,00.0,32.5,25.7,10.7,0000.0,0007.42,0003.41,0003.24
2022-10-24 17:04:00,,0820.6,5.01,0.00,23.7,22.5,00.0,32.5,25.7,10.7,0000.0,0007.46,0003.42,0003.23
2022-10-24 17:05:00,,0820.6,5.01,0.00,23.8,22.5,00.0,32.5,25.7,10.8,0000.0,0006.26,0003.40,0003.22
2022-10-24 17:06:00,,0820.6,5.00,0.00,23.8,22.5,00.0,32.5,25.7,10.7,0000.0,0005.00,0003.40,0003.21
2022-10-24 17:07:00,,0820.6,5.00,0.00,23.8,22.5,00.0,32.5,25.7,10.8,0000.0,0005.14,0003.41,0003.20
2022-10-24 17:08:00,,0820.6,5.00,0.00,23.8,22.5,00.0,32.5,25.7,10.7,0000.0,0006.88,0003.41,0003.18
2022-10-24 17:09:00,,0820.6,5.00,0.00,23.8,22.5,00.0,32.5,25.7,10.7,0000.0,0006.88,0003.40,0003.18
2022-10-24 17:10:00,,0820.6,5.00,0.00,23.8,22.6,00.0,32.5,25.7,10.8,0000.0,0007.39,0003.39,0003.17
2022-10-24 17:11:00,,0820.6,5.00,0.00,23.8,22.6,00.0,32.5,25.7,10.8,0000.0,0008.02,0003.38,0003.15
2022-10-24 17:12:00,,0820.6,5.00,0.00,23.8,22.6,00.0,32.6,25.8,10.7,0000.0,0008.03,0003.37,0003.14
2022-10-24 17:13:00,,0820.6,4.98,0.00,23.9,22.6,00.0,32.6,25.9,10.7,0000.0,0008.04,0003.36,0003.13
2022-10-24 17:14:00,,0820.6,5.00,0.00,23.9,22.7,00.0,32.6,25.9,10.5,0000.0,0008.09,0003.36,0003.13
2022-10-24 17:15:00,,0820.6,5.00,0.00,23.9,22.7,00.0,32.6,25.9,10.4,0000.0,0007.91,0003.36,0003.13
2022-10-24 17:16:00,,0820.6,5.01,0.00,23.9,22.7,00.0,32.6,25.9,10.1,0000.0,0007.85,0003.35,0003.13
2022-10-24 17:17:00,,0820.6,5.00,0.00,23.9,22.7,00.0,32.6,25.9,10.3,0000.0,0007.80,0003.35,0003.13
2022-10-24 17:18:00,,0820.6,4.98,0.00,23.9,22.8,00.0,32.6,25.9,10.3,0000.0,0007.68,0003.35,0003.12
2022-10-24 17:19:00,,0820.6,5.00,0.00,24.0,22.8,00.0,32.7,25.9,10.2,0000.0,0006.25,0003.32,0003.12
2022-10-24 17:20:00,,0820.6,5.01,0.00,24.0,22.8,00.0,32.7,25.9,10.3,0000.0,0006.17,0003.30,0003.11
2022-10-24 17:21:00,,0820.5,5.02,0.00,24.0,22.8,00.0,32.7,25.9,10.4,0000.0,0005.50,0003.29,0003.11
2022-10-24 17:22:00,,0820.5,5.01,0.00,24.0,22.9,00.0,32.7,25.9,10.3,0000.0,0004.71,0003.27,0003.11
2022-10-24 17:23:00,,0820.5,4.98,0.00,24.0,22.9,00.0,32.7,25.9,10.4,0000.0,0004.80,0003.28,0003.12
2022-10-24 17:24:00,,0820.5,5.00,0.00,24.0,22.9,00.0,32.8,26.0,10.4,0000.0,0004.87,0003.29,0003.12
2022-10-24 17:25:00,,0820.6,5.00,0.00,24.0,22.9,00.0,32.8,26.0,10.6,0000.0,0004.86,0003.31,0003.12
2022-10-24 17:26:00,,0820.5,5.00,0.00,24.1,22.9,00.0,32.8,26.0,10.5,0000.0,0004.87,0003.31,0003.13
2022-10-24 17:27:00,,0820.5,5.01,0.00,24.1,22.9,00.0,32.8,26.1,10.4,0000.0,0004.99,0003.34,0003.13
2022-10-24 17:28:00,,0820.4,4.99,0.00,24.1,23.0,00.0,32.8,26.1,10.3,0000.0,0005.04,0003.33,0003.14
2022-10-24 17:29:00,,0820.5,4.99,0.00,24.1,23.0,00.0,32.8,26.1,10.3,0000.0,0005.06,0003.32,0003.14
2022-10-24 17:30:00,,0820.5,5.00,0.00,24.1,23.0,00.0,32.8,26.1,10.2,0000.0,0005.17,0003.37,0003.15
2022-10-24 17:31:00,,0820.4,4.99,0.00,24.1,22.9,00.0,32.8,26.2,10.0,0000.0,0005.22,0003.39,0003.16
2022-10-24 17:32:00,,0820.4,5.00,0.00,24.2,22.9,00.0,32.9,26.2,09.9,0000.0,0005.05,0003.40,0003.16
2022-10-24 17:33:00,,0820.4,5.02,0.00,24.2,23.0,00.0,32.9,26.2,10.0,0000.0,0005.05,0003.42,0003.16
2022-10-24 17:34:00,,0820.4,5.00,0.00,24.2,23.0,00.0,32.9,26.2,10.0,0000.0,0004.90,0003.41,0003.16
2022-10-24 17:35:00,,0820.4,5.00,0.00,24.2,23.0,00.0,32.9,26.2,09.8,0000.0,0005.68,0003.41,0003.15
2022-10-24 17:36:00,,0820.5,4.99,0.00,24.2,23.0,00.0,32.9,26.2,09.8,0000.0,0006.27,0003.41,0003.15
2022-10-24 17:37:00,,0820.5,4.99,0.00,24.2,23.0,00.0,32.9,26.2,09.9,0000.0,0006.44,0003.42,0003.15
2022-10-24 17:38:00,,0820.5,5.00,0.00,24.2,23.0,00.0,32.9,26.2,09.7,0000.0,0006.64,0003.37,0003.13
2022-10-24 17:39:00,,0820.5,5.01,0.00,24.2,23.1,00.0,33.0,26.3,09.9,0000.0,0006.74,0003.36,0003.12
2022-10-24 17:40:00,,0820.5,5.01,0.00,24.3,23.1,00.0,33.0,26.3,10.0,0000.0,0006.73,0003.36,0003.11
2022-10-24 17:41:00,,0820.5,5.00,0.00,24.3,23.1,00.0,33.0,26.3,10.1,0000.0,0006.68,0003.35,0003.09
2022-10-24 17:42:00,,0820.5,4.99,0.00,24.3,23.1,00.0,33.0,26.3,10.2,0000.0,0006.76,0003.34,0003.08
2022-10-24 17:43:00,,0820.5,4.99,0.00,24.3,23.1,00.0,33.0,26.3,10.2,0000.0,0006.77,0003.34,0003.08
2022-10-24 17:44:00,,0820.5,4.99,0.00,24.3,23.1,00.0,33.0,26.3,10.0,0000.0,0007.45,0003.33,0003.08
2022-10-24 17:45:00,,0820.5,4.99,0.00,24.3,23.1,00.0,33.0,26.3,09.9,0000.0,0007.52,0003.31,0003.10
2022-10-24 17:46:00,,0820.5,4.99,0.00,24.3,23.2,00.0,33.1,26.3,09.7,0000.0,0006.60,0003.30,0003.10
2022-10-24 17:47:00,,0820.6,5.00,0.00,24.4,23.2,00.0,33.1,26.3,09.7,0000.0,0006.08,0003.28,0003.12
2022-10-24 17:48:00,,0820.6,5.01,0.00,24.4,23.2,00.0,33.1,26.4,09.6,0000.0,0005.89,0003.26,0003.11
2022-10-24 17:49:00,,0820.6,5.01,0.00,24.4,23.3,00.0,33.1,26.4,09.5,0000.0,0006.04,0003.28,0003.12
2022-10-24 17:50:00,,0820.7,5.00,0.00,24.4,23.3,00.0,33.1,26.4,09.5,0000.0,0005.98,0003.28,0003.13
2022-10-24 17:51:00,,0820.6,4.99,0.00,24.4,23.3,00.0,33.1,26.3,09.5,0000.0,0006.63,0003.27,0003.13
2022-10-24 17:52:00,,0820.6,5.00,0.00,24.4,23.3,00.0,33.2,26.4,09.5,0000.0,0006.76,0003.26,0003.13
2022-10-24 17:53:00,,0820.6,5.00,0.00,24.4,23.3,00.0,33.2,26.4,09.5,0000.0,0006.69,0003.26,0003.13
2022-10-24 17:54:00,,0820.6,4.99,0.00,24.5,23.3,00.0,33.2,26.4,09.5,0000.0,0006.63,0003.25,0003.13
2022-10-24 17:55:00,,0820.6,5.00,0.00,24.5,23.3,00.0,33.2,26.4,09.3,0000.0,0005.62,0003.26,0003.13
2022-10-24 17:56:00,,0820.6,4.99,0.00,24.5,23.4,00.0,33.2,26.4,09.4,0000.0,0005.77,0003.27,0003.11
2022-10-24 17:57:00,,0820.6,5.03,0.00,24.5,23.4,00.0,33.3,26.4,09.6,0000.0,0006.66,0003.31,0003.10
2022-10-24 17:58:00,,0820.6,4.99,0.00,24.5,23.4,00.0,33.3,26.5,08.3,0000.0,0007.52,0003.27,0003.01
2022-10-24 17:59:00,,0820.6,5.00,0.00,24.5,23.4,00.0,33.3,26.5,07.5,0000.0,0007.37,0003.18,0002.86
